Nanaimo Airport, British Columbia

Past 24 Hour Conditions

Date / Time
(PDT)
Conditions Temp
(°C)
Humidity
(%)
Dew Point
(°C)
Wind
(km/h)
Pressure
(kPa)
Visibility
(km)
31 October 2014
19:00 Mostly Cloudy 10 96 9 SSE 3 101.1 32
18:00 Mostly Cloudy 10 93 9 N 2 101.0 32
17:00 Mostly Cloudy 11   91 9 ENE 5 101.0 32
16:00 Mostly Cloudy 11   87 9 ESE 7 101.0 32
15:00 Mostly Cloudy 11   88 9 E 12 100.9 32
14:00 Mostly Cloudy 11   89 10 SSE 8 100.9 32
13:00 Mostly Cloudy 11   85 9 SE 3 100.9 32
12:00 Light Rain 10 89 8 NNE 5 100.8 32
11:00 Mostly Cloudy 9 93 8 N 4 100.8 32
10:00 Mostly Cloudy 9 96 8 WNW 5 100.7 32
9:00 Mostly Cloudy 8   96 8 S 4 100.7 32
8:00 Mostly Cloudy 9 93 7 WNW 6 100.7 32
7:00 Light Rain 8   96 8 W 5 100.6 32
6:00 Light Rain 8   97 8 N 3 100.7 32
5:00 N/A 8   99 8 WSW 7 100.7 N/A
4:00 N/A 8   98 7 SSE 3 100.7 N/A
3:00 N/A 8   99 8 calm 100.7 N/A
2:00 N/A 8   99 8 S 4 100.8 N/A
1:00 N/A 9 98 8 calm 100.8 N/A
00:00 N/A 9 99 9 W 4 100.8 N/A
30 October 2014
23:00 N/A 10 99 10 WNW 5 100.8 N/A
22:00 N/A 10 99 10 calm 100.7 N/A
21:00 Mostly Cloudy 10 99 10 calm 100.6 16
20:00 Mostly Cloudy 11   98 11 calm 100.6 24
19:00 Light Rain 11   98 11 W 3 100.6 16
N/A Not available
↑ Highest temperature
↓ Lowest temperature

If you require additional historical weather information, please visit Climate Data Online.

Date modified: